Powrót do katalogu

STARLINK-30133

AktywnyŁącznośćVLEO
NORAD 56837·PAYLOAD·🇺🇸 United States

Wystrzelony Jun 4, 2023 z Cape Canaveral Space Force Station

Loading…

Następne Przeloty (najbliższe 24 godziny)

TLE

ŚwieżeSource: CelesTrak SupGP

Epoka: Sep 15, 2026, 03:01 UTC

1 56837C 23079Q   26258.12618056  .00022927  00000+0  83012-3 0  2588
2 56837  43.0011 116.8173 0001436 268.6674 128.6668 15.27579194    18

Śledź STARLINK-30133 w czasie rzeczywistym z AllMySat

Download on the App Store